Location: Franzen
(48.6167°N, 15.3833°E)
Time: 10:09:19
(UTC+00:00)

Vanguard 2 - All Passes

Search period start: 31 July 2021 00:00
Search period end: 10 August 2021 00:00
Orbit: 552 x 2937 km, 32.9° (Epoch: 30 July)

Date Brightness Start Highest point End Pass type
(mag) Time Alt. Az. Time Alt. Az. Time Alt. Az.
31 Jul - 04:08:22 10° S 04:09:26 11° SSE 04:10:34 10° SE daylight
31 Jul - 06:12:40 10° SW 06:16:38 19° S 06:21:56 10° SE daylight
31 Jul - 08:20:05 10° SW 08:24:41 17° SSW 08:30:39 10° SSE daylight
01 Aug - 04:24:40 10° S 04:26:43 13° SSE 04:29:00 10° SE daylight
01 Aug - 06:30:14 10° SW 06:34:04 18° S 06:39:05 10° SE daylight
01 Aug - 08:38:41 10° SW 08:42:11 13° SSW 08:46:25 10° S daylight
02 Aug - 04:41:40 10° SSW 04:44:02 14° SSE 04:46:47 10° SE daylight
02 Aug - 06:48:03 10° SW 06:51:32 16° S 06:55:57 10° SSE daylight
03 Aug - 04:58:58 10° SSW 05:01:25 14° S 05:04:15 10° SE daylight
03 Aug - 07:06:14 10° SW 07:09:01 13° S 07:12:20 10° SSE daylight
04 Aug - 05:16:32 10° SSW 05:18:48 13° S 05:21:27 10° SSE daylight
04 Aug - 07:26:11 10° SSW 07:26:31 10° SSW 07:26:50 10° S daylight
05 Aug - 05:34:29 10° SSW 05:36:15 12° S 05:38:12 10° SSE daylight
06 Aug - 03:45:54 10° S 03:46:19 10° S 03:46:45 10° SSE daylight
